Regional Weather Roundup
Issued by NWS Goodland, KS

Home | Current Version | Previous Version | Graphics & Text | Print | Product List | Glossary On
Versions: 1 2 3 4 5 6 7 8 9 10 11 12 13 14 15 16 17 18 19 20 21 22 23 24 25 26 27 28 29 30 31 32 33 34 35 36 37 38 39 40 41 42 43 44 45 46 47 48 49 50
000
ASUS43 KGLD 291159
RWRGLD

GOODLAND FORECAST AREA HOURLY WEATHER ROUNDUP
NATIONAL WEATHER SERVICE GOODLAND KS
600 AM MDT SAT APR 29 2017

...OFFICIAL OBSERVATIONS...

CITY           SKY/WX    TMP DP  RH WIND       PRES   REMARKS
GOODLAND KS    LGT SNOW  32  32 100 NE20      30.04R VSB 3/4
HILL CITY KS   RAIN      37  36  96 NE15      30.06R FOG
IMPERIAL NEB   CLOUDY    37  29  72 NE13      30.12R
MCCOOK NEB     LGT RAIN  38  34  85 NE23G29   30.13R FOG
AKRON CO       CLOUDY    31  28  89 N14       30.10R
BURLINGTON CO  NOT AVBL
LIMON CO       CLOUDY    28  26  92 N20G28    30.05R WCI  15
$$

...UNOFFICIAL OBSERVATIONS...

CITY           SKY/WX    TMP DP  RH WIND       PRES   REMARKS
LENORA KS        N/A     34  32  92 MISG        N/A
NORTON KS      LGT RAIN  36  30  80 N16G22    30.08R
SHARON SPRINGS   N/A     32  32 100 N13G20      N/A
TRENTON NEB      N/A     37  32  82 NE8         N/A
KIT CARSON CO    N/A     31  28  87 MISG        N/A
$$




USA.gov is the U.S. government's official web portal to all federal, state and local government web resources and services.